User: anonymous   Login
Location: Newark
(55.7816°N, 8.2389°E)
Time: 01:32:24
(UTC+00:00)
Language:

BEESAT 3 - Orbit

View from above orbital plane
View from above orbital plane
View from above satellite
View from above satellite

Ground track
Ground track

The orbit data is extracted from the following two-line orbital elements,

1 39134U 13015E   20057.59467153  .00000984  00000-0  53148-4 0  9990
2 39134  64.8620 280.7198 0037659 261.7062  97.9795 15.20771311379044
Epoch (UTC): 26 February 2020 14:16:19
Eccentricity: 0.0037659
inclination: 64.8620°
perigee height: 477 km
apogee height: 529 km
right ascension of ascending node: 280.7198°
argument of perigee: 261.7062°
revolutions per day: 15.20771311
mean anomaly at epoch: 97.9795°
orbit number at epoch: 37904

The dashed part of the orbit path shows where the satellite is in the earth's shadow,  

DLR